ARIANE 5 R/B, 27387

Orbit data source: Space-Track

ARIANE 5 R/B, 27387 is space debris in SSO originally from a launch on Fri, 01 Mar 2002 UTC launched from the French Guiana (FRGUI). Debris objects in space refer to the collection of defunct objects orbiting the Earth. Examples of debris include non-operational satellites, rocket bodies, and fragments generated from explosions, collisions, or faulty payload assembly.

Loading next visibility...
Identifier
27387, 2002-009B
Orbit
SSO
Last TLE update
17 hours ago
Origin
Manufacturer
Astrium
Mission
Spacecraft
Bus & Motor
EPS, AESTUS
Mass
1,190 kg wet, 1,190 kg dry
Launch date (UTC)
2002-03-01 (23 years ago)
Launch vehicle
Unknown
Launch site
French Guiana (FRGUI)
Object type
Payload
Rocket body
Debris
Shape & HBR
Cone + Cyl, 5.46 m
Radar Cross Section
25.858 m², Large (>1 m²)

Expand to show TLE details & history

TLE from 17 hours ago
0 ARIANE 5 R/B
1 27387U 02009B   25169.58791341  .00000064  00000-0  37269-4 0  9990
2 27387  98.8153 174.0740 0033148 118.3587 242.0948 14.36681088221108
Epoch: 2025-06-18T14:06Z
TLE epoch observation values (Epoch: 2025-06-18T14:06:35.718Z)
Latitude
0.00001°
Longitude
55.35737°
Altitude
783.571 km
Speed
7.456 km/s
True Right ascension
11h 36m 17s
True Declination
0° 00' 00"
Sunlit
Object was in daylight at epoch
Visualization orbit readout
Latitude
-32.1615°
Longitude
61.62995°
Altitude
801.765 km
Speed
7.441 km/s
Apparent Right ascension
09h 14m 15s
Apparent Declination
-47° 12' 49"
Sunlit
Object is in daylight
Visualization observer readout
Local Sidereal Time
17:30:55
Azimuth
240.49° WSW
Elevation
-49.773°
Doppler factor
1
Orbital elements
Apogee altitude
790.31 km
Perigee altitude
742.943 km
Semi-major axis
7,144.764 km
Eccentricity
0.00331
Inclination
98.8153°
RAAN
174.074°
Arg. of periapsis
118.3587°
True anomaly
Unknown
Mean anomaly
242.0948°
Eccentric anomaly
Unknown
Mean motion
3.59386 °/min
Orbital period
100.17 mins
BSTAR
0.000037269
Loading maneuver chart data...
Loading SW <> Apogee altitude chart data...
Loading historical data...
Loading historical data...
Loading historical data...
Loading historical data...
Loading historical data...
Loading historical data...
Loading historical data...
Other satellites on launch #9 in the year 2002 (2002-03-01 UTC)

ARIANE 5 R/B Visibility forecast

Observer location: undefined°, undefined°

Span
Click to sort rows by Start time (UTC) header in descending order
Start Az.
Max El. time (UTC)
Max El. Az.
Max El.
End time (UTC)
End Az.
8 mins2025-06-19 12:25:23.964Z37.284° NE2025-06-19 12:29:23.964Z94.103° ESE26.3°2025-06-19 12:33:23.964Z154.618° SSE
7 mins2025-06-19 14:05:23.964Z343.372° N2025-06-19 14:08:23.964Z294.473° NW26.395°2025-06-19 14:12:23.964Z235.256° WSW
7 mins2025-06-19 23:41:23.964Z127.202° SE2025-06-19 23:44:23.964Z62.391° ENE33.493°2025-06-19 23:48:23.964Z2.79° NNE
5 mins2025-06-20 01:21:23.964Z235.336° WSW2025-06-20 01:23:23.964Z266.691° W20.214°2025-06-20 01:26:23.964Z308.686° NW
|